Rotterdam, Netherlands

9:07 AM CEST on September 20, 2017 (GMT +0200)
Rotterdam

Weather History for EHRD - May, 2012

Change the Weather History Date:

Monday, May 7, 2012

  Actual Average Record
Temperature  
Mean Temperature 50 °F -  
Max Temperature 59 °F 63 °F 82 °F (2011)
Min Temperature 40 °F 47 °F 32 °F (1997)
Degree Days  
Heating Degree Days 16    
Moisture  
Dew Point 40 °F    
Average Humidity 64    
Maximum Humidity 87    
Minimum Humidity 36    
Precipitation  
Precipitation 0.00 in - - ()
Sea Level Pressure  
Sea Level Pressure 30.02 in    
Wind  
Wind Speed 6 mph ()    
Max Wind Speed 12 mph    
Max Gust Speed -    
Visibility 7.3 miles    
Events Rain    
Averages and records for this station are not official NWS values.
T = Trace of Precipitation, MM = Missing Value Source: Averaged Metar Reports

Daily Weather History Graph

Daily Weather History Graph

Search for Another Location

Airport or City:

Trip Planner

Search our weather history database for the weather conditions in past years. The results will help you decide how hot, cold, wet, or windy it might be!

Date:

Astronomy

May. 07, 2012 Rise Set
Actual Time 6:01 AM CEST 9:17 PM CEST
Civil Twilight 5:20 AM CEST 9:57 PM CEST
Nautical Twilight 4:27 AM CEST 10:51 PM CEST
Astronomical Twilight 3:15 AM CEST 12:05 AM CEST
Moon 11:24 PM CEST (5/7) 6:41 AM CEST (5/7)
Length of Visible Light 16h 36m
Length of Day
15h 16m
Full, 98% of the Moon is Illuminated
May 7
Full
May 12
Last Quarter
May 21
New
May 28
First Quarter
Jun 4
Full

Hourly Weather History & Observations

Time (CEST) Temp. Windchill Dew Point Humidity Pressure Visibility Wind Dir Wind Speed Gust Speed Precip Events Conditions
12:25 AM 44.6 °F 41.4 °F 39.2 °F 81% 30.01 in 6.2 mi ENE 5.8 mph - N/A   Unknown
12:55 AM 46.4 °F 42.9 °F 37.4 °F 71% 30.01 in 6.2 mi East 6.9 mph - N/A   Unknown
1:25 AM 44.6 °F 42.2 °F 39.2 °F 81% 30.01 in 6.2 mi East 4.6 mph - N/A   Unknown
1:55 AM 44.6 °F 41.4 °F 37.4 °F 76% 30.01 in 6.2 mi East 5.8 mph - N/A   Unknown
2:00 AM 44 °F - 37 °F 69% 30.03 in 14 mi East 4.5 mph - -   Overcast
2:25 AM 41.0 °F 38.0 °F 37.4 °F 87% 30.01 in 6.2 mi East 4.6 mph - N/A   Unknown
2:55 AM 41.0 °F 39.0 °F 37.4 °F 87% 30.01 in 6.2 mi ESE 3.5 mph - N/A   Unknown
3:25 AM 42.8 °F 40.1 °F 37.4 °F 81% 30.01 in 6.2 mi East 4.6 mph - N/A   Unknown
3:55 AM 42.8 °F - 37.4 °F 81% 30.01 in 6.2 mi East 2.3 mph - N/A   Unknown
4:25 AM 41.0 °F 38.0 °F 37.4 °F 87% 30.04 in 6.2 mi ESE 4.6 mph - N/A   Unknown
4:55 AM 42.8 °F 40.1 °F 37.4 °F 81% 30.04 in 6.2 mi ESE 4.6 mph - N/A   Unknown
5:00 AM 43 °F - 38 °F 75% 30.04 in 16 mi East 4.5 mph - -   Overcast
5:25 AM 42.8 °F 38.6 °F 37.4 °F 81% 30.04 in 6.2 mi East 6.9 mph - N/A   Unknown
5:55 AM 44.6 °F 40.7 °F 37.4 °F 76% 30.04 in 6.2 mi East 6.9 mph - N/A   Unknown
6:25 AM 44.6 °F 40.7 °F 37.4 °F 76% 30.04 in 6.2 mi East 6.9 mph - N/A   Unknown
6:55 AM 44.6 °F 40.2 °F 37.4 °F 76% 30.04 in 6.2 mi East 8.1 mph - N/A   Unknown
7:25 AM 44.6 °F 40.2 °F 37.4 °F 76% 30.04 in 6.2 mi East 8.1 mph - N/A   Unknown
7:55 AM 44.6 °F 41.4 °F 37.4 °F 76% 30.06 in 6.2 mi East 5.8 mph - N/A   Unknown
8:00 AM 44 °F - 38 °F 71% 30.07 in 17 mi East 6.7 mph - -   Overcast
8:25 AM 44.6 °F 41.4 °F 39.2 °F 81% 30.06 in 6.2 mi East 5.8 mph - N/A   Unknown
8:55 AM 46.4 °F 42.9 °F 39.2 °F 76% 30.06 in 6.2 mi ESE 6.9 mph - N/A   Unknown
9:25 AM 46.4 °F 42.4 °F 39.2 °F 76% 30.06 in 6.2 mi ESE 8.1 mph - N/A   Unknown
9:55 AM 48.2 °F - 39.2 °F 71% 30.06 in 6.2 mi East 8.1 mph - N/A   Unknown
10:25 AM 50.0 °F - 41.0 °F 71% 30.06 in 6.2 mi East 8.1 mph - N/A   Unknown
10:55 AM 50.0 °F - 39.2 °F 66% 30.06 in 6.2 mi East 9.2 mph - N/A   Mostly Cloudy
11:25 AM 51.8 °F - 39.2 °F 62% 30.06 in 6.2 mi ESE 9.2 mph - N/A   Mostly Cloudy
11:55 AM 53.6 °F - 41.0 °F 62% 30.06 in 6.2 mi ESE 8.1 mph - N/A   Mostly Cloudy
12:25 PM 55.4 °F - 41.0 °F 58% 30.06 in 6.2 mi ESE 8.1 mph - N/A   Partly Cloudy
12:55 PM 55.4 °F - 41.0 °F 58% 30.06 in 6.2 mi ESE 9.2 mph - N/A   Partly Cloudy
1:25 PM 55.4 °F - 39.2 °F 54% 30.06 in 6.2 mi SE 9.2 mph - N/A   Scattered Clouds
1:55 PM 57.2 °F - 39.2 °F 51% 30.04 in 6.2 mi SSE 5.8 mph - N/A   Mostly Cloudy
2:00 PM 58 °F - 40 °F 39% 30.06 in 17 mi SSE 8.9 mph - -   Partly Cloudy
2:25 PM 57.2 °F - 39.2 °F 51% 30.04 in 6.2 mi Variable 8.1 mph - N/A   Mostly Cloudy
2:55 PM 57.2 °F - 41.0 °F 55% 30.04 in 6.2 mi SSE 9.2 mph - N/A   Mostly Cloudy
3:25 PM 57.2 °F - 39.2 °F 51% 30.04 in 6.2 mi SSE 8.1 mph - N/A   Partly Cloudy
3:55 PM 57.2 °F - 41.0 °F 55% 30.04 in 6.2 mi South 9.2 mph - N/A   Partly Cloudy
4:25 PM 59.0 °F - 41.0 °F 51% 30.01 in 6.2 mi SE 9.2 mph - N/A   Partly Cloudy
4:55 PM 59.0 °F - 41.0 °F 51% 30.01 in 6.2 mi SSE 10.4 mph - N/A   Scattered Clouds
5:00 PM 59 °F - 39 °F 36% 30.02 in 16 mi SSE 8.9 mph - -   Mostly Cloudy
5:25 PM 57.2 °F - 41.0 °F 55% 30.01 in 6.2 mi SSE 10.4 mph - N/A   Unknown
5:55 PM 59.0 °F - 41.0 °F 51% 30.01 in 6.2 mi SSE 9.2 mph - N/A   Unknown
6:25 PM 59.0 °F - 41.0 °F 51% 30.01 in 6.2 mi SSE 10.4 mph - N/A   Unknown
6:55 PM 59.0 °F - 39.2 °F 48% 29.98 in 6.2 mi Variable 11.5 mph - N/A   Unknown
7:25 PM 59.0 °F - 41.0 °F 51% 29.98 in 6.2 mi SSE 11.5 mph - N/A   Unknown
7:55 PM 57.2 °F - 41.0 °F 55% 29.98 in 6.2 mi SSE 9.2 mph - N/A   Unknown
8:00 PM 58 °F - 40 °F 39% 29.99 in 17 mi SSE 8.9 mph - -   Overcast
8:25 PM 57.2 °F - 39.2 °F 51% 29.98 in 6.2 mi SSE 9.2 mph - N/A   Partly Cloudy
8:55 PM 57.2 °F - 41.0 °F 55% 29.98 in 6.2 mi SSE 9.2 mph - N/A   Unknown
9:25 PM 57.2 °F - 41.0 °F 55% 29.98 in 6.2 mi SSE 8.1 mph - N/A   Unknown
9:55 PM 57.2 °F - 41.0 °F 55% 29.98 in 6.2 mi SSE 10.4 mph - N/A   Unknown
10:25 PM 57.2 °F - 41.0 °F 55% 29.98 in 6.2 mi SSE 9.2 mph - N/A Rain Light Rain
10:55 PM 57.2 °F - 42.8 °F 59% 29.98 in 6.2 mi SSE 8.1 mph - N/A Rain Light Rain
11:00 PM 57 °F - 42 °F 46% 29.98 in 22 mi SSE 8.9 mph - - Rain Rain
11:25 PM 57.2 °F - 42.8 °F 59% 29.98 in 6.2 mi SSE 9.2 mph - N/A   Unknown
11:55 PM 55.4 °F - 44.6 °F 67% 29.98 in 6.2 mi SSE 10.4 mph - N/A Rain Light Rain